Hourly Weather Otrada

Today, 24 July, Saturday

Time Temperature Precipitation Wind Pressure Humidity
00:00 +17°C° 0 mm 2 mps 739 mmHg 78%
01:00 +16°C° 0 mm 2 mps 739 mmHg 79%
02:00 +16°C° 0 mm 2 mps 739 mmHg 79%
03:00 +16°C° 0 mm 2 mps 739 mmHg 80%
04:00 +16°C° 0 mm 2 mps 739 mmHg 82%
05:00 +16°C° 0 mm 2 mps 739 mmHg 83%
06:00 +18°C° 0 mm 3 mps 739 mmHg 77%
07:00 +19°C° 0 mm 3 mps 739 mmHg 71%
08:00 +21°C° 0 mm 4 mps 740 mmHg 64%
09:00 +21°C° 0 mm 4 mps 740 mmHg 57%
10:00 +22°C° 0 mm 5 mps 740 mmHg 49%
11:00 +23°C° 0 mm 5 mps 740 mmHg 42%
12:00 +23°C° 0 mm 5 mps 740 mmHg 42%
13:00 +23°C° 0 mm 5 mps 741 mmHg 42%
14:00 +23°C° 0 mm 6 mps 741 mmHg 41%
15:00 +23°C° 0 mm 5 mps 741 mmHg 44%
16:00 +22°C° 0 mm 4 mps 741 mmHg 46%
17:00 +22°C° 0 mm 4 mps 742 mmHg 49%
18:00 +20°C° 0 mm 3 mps 742 mmHg 54%
19:00 +18°C° 0 mm 3 mps 742 mmHg 59%
20:00 +17°C° 0 mm 2 mps 743 mmHg 65%
21:00 +16°C° 0 mm 2 mps 743 mmHg 66%
22:00 +15°C° 0 mm 1 mps 743 mmHg 67%
23:00 +15°C° 0 mm 1 mps 744 mmHg 68%

Tomorrow, 25 July, Sunday

Time Temperature Precipitation Wind Pressure Humidity
00:00 +14°C° 0 mm 1 mps 744 mmHg 68%
01:00 +14°C° 0 mm 1 mps 744 mmHg 69%
02:00 +14°C° 0 mm 1 mps 744 mmHg 70%
03:00 +14°C° 0 mm 1 mps 744 mmHg 70%
04:00 +14°C° 0 mm 1 mps 745 mmHg 70%
05:00 +15°C° 0 mm 1 mps 745 mmHg 70%
06:00 +16°C° 0 mm 1 mps 745 mmHg 64%
07:00 +19°C° 0 mm 1 mps 746 mmHg 58%
08:00 +21°C° 0 mm 1 mps 746 mmHg 52%
09:00 +22°C° 0 mm 1 mps 746 mmHg 48%
10:00 +24°C° 0 mm 1 mps 746 mmHg 44%
11:00 +25°C° 0 mm 1 mps 746 mmHg 40%
12:00 +25°C° 0 mm 1 mps 746 mmHg 38%
13:00 +26°C° 0 mm 1 mps 746 mmHg 37%
14:00 +26°C° 0 mm 2 mps 746 mmHg 36%
15:00 +26°C° 0 mm 2 mps 746 mmHg 38%
16:00 +25°C° 0 mm 3 mps 746 mmHg 40%
17:00 +25°C° 0 mm 3 mps 746 mmHg 42%
18:00 +22°C° 0 mm 3 mps 746 mmHg 47%
19:00 +20°C° 0 mm 3 mps 747 mmHg 52%
20:00 +18°C° 0 mm 3 mps 747 mmHg 57%
21:00 +18°C° 0 mm 3 mps 747 mmHg 57%
22:00 +17°C° 0 mm 2 mps 747 mmHg 58%
23:00 +16°C° 0 mm 2 mps 747 mmHg 58%

Day after tomorrow, 26 July, Monday

Time Temperature Precipitation Wind Pressure Humidity
00:00 +16°C° 0 mm 2 mps 747 mmHg 59%
01:00 +16°C° 0 mm 2 mps 748 mmHg 59%
02:00 +15°C° 0 mm 2 mps 748 mmHg 60%
03:00 +15°C° 0 mm 2 mps 748 mmHg 61%
04:00 +15°C° 0 mm 2 mps 748 mmHg 63%
05:00 +15°C° 0 mm 2 mps 748 mmHg 64%
06:00 +18°C° 0 mm 2 mps 748 mmHg 59%
07:00 +20°C° 0 mm 2 mps 748 mmHg 53%
08:00 +23°C° 0 mm 2 mps 748 mmHg 48%
09:00 +24°C° 0 mm 2 mps 748 mmHg 45%
10:00 +25°C° 0 mm 2 mps 748 mmHg 41%
11:00 +26°C° 0 mm 2 mps 749 mmHg 38%
12:00 +27°C° 0 mm 2 mps 748 mmHg 37%
13:00 +27°C° 0 mm 2 mps 748 mmHg 36%
14:00 +27°C° 0 mm 2 mps 748 mmHg 35%
15:00 +27°C° 0 mm 2 mps 748 mmHg 37%
16:00 +27°C° 0 mm 2 mps 748 mmHg 39%
17:00 +26°C° 0 mm 2 mps 748 mmHg 41%
18:00 +24°C° 0 mm 2 mps 748 mmHg 45%
19:00 +21°C° 0 mm 2 mps 748 mmHg 50%
20:00 +19°C° 0 mm 2 mps 748 mmHg 55%
21:00 +19°C° 0 mm 2 mps 748 mmHg 56%
22:00 +18°C° 0 mm 2 mps 748 mmHg 58%
23:00 +17°C° 0 mm 2 mps 748 mmHg 60%

27 July, Tuesday

Time Temperature Precipitation Wind Pressure Humidity
00:00 +17°C° 0 mm 2 mps 748 mmHg 60%
01:00 +17°C° 0 mm 2 mps 748 mmHg 61%
02:00 +16°C° 0 mm 2 mps 748 mmHg 61%
03:00 +16°C° 0 mm 2 mps 748 mmHg 61%
04:00 +16°C° 0 mm 2 mps 748 mmHg 61%
05:00 +18°C° 0 mm 1 mps 748 mmHg 61%
06:00 +19°C° 0 mm 2 mps 748 mmHg 56%
07:00 +21°C° 0 mm 2 mps 748 mmHg 50%
08:00 +24°C° 0 mm 2 mps 748 mmHg 45%
09:00 +25°C° 0 mm 2 mps 748 mmHg 41%
10:00 +26°C° 0 mm 2 mps 748 mmHg 38%
11:00 +28°C° 0 mm 2 mps 748 mmHg 34%
12:00 +28°C° 0 mm 2 mps 747 mmHg 33%
13:00 +29°C° 0 mm 1 mps 747 mmHg 32%
14:00 +29°C° 0 mm 1 mps 747 mmHg 31%
15:00 +29°C° 0 mm 1 mps 746 mmHg 32%
16:00 +29°C° 0 mm 1 mps 746 mmHg 33%
17:00 +28°C° 0 mm 1 mps 746 mmHg 34%
18:00 +26°C° 0 mm 1 mps 746 mmHg 39%
19:00 +24°C° 0 mm 1 mps 746 mmHg 44%
20:00 +22°C° 0 mm 1 mps 746 mmHg 49%
21:00 +21°C° 0 mm 1 mps 746 mmHg 51%
22:00 +21°C° 0 mm 1 mps 746 mmHg 52%
23:00 +20°C° 0 mm 1 mps 746 mmHg 54%

28 July, Wednesday

Time Temperature Precipitation Wind Pressure Humidity
00:00 +20°C° 0 mm 1 mps 746 mmHg 55%
01:00 +19°C° 0 mm 1 mps 745 mmHg 56%
02:00 +19°C° 0 mm 1 mps 745 mmHg 57%
03:00 +19°C° 0 mm 1 mps 745 mmHg 58%
04:00 +19°C° 0 mm 1 mps 745 mmHg 59%
05:00 +19°C° 0 mm 1 mps 745 mmHg 61%
06:00 +21°C° 0 mm 1 mps 745 mmHg 55%
07:00 +23°C° 0 mm 2 mps 745 mmHg 50%
08:00 +26°C° 0 mm 2 mps 744 mmHg 44%
09:00 +27°C° 0 mm 2 mps 744 mmHg 41%
10:00 +28°C° 0 mm 2 mps 744 mmHg 37%
11:00 +29°C° 0 mm 2 mps 744 mmHg 33%
12:00 +30°C° 0 mm 3 mps 743 mmHg 33%
13:00 +30°C° 0 mm 3 mps 743 mmHg 33%
14:00 +31°C° 0 mm 3 mps 742 mmHg 32%
15:00 +28°C° 0 mm 4 mps 742 mmHg 44%
16:00 +26°C° 0 mm 6 mps 742 mmHg 56%
17:00 +23°C° 0 mm 7 mps 742 mmHg 68%
18:00 +22°C° 0.1 mm 5 mps 742 mmHg 72%
19:00 +20°C° 0.1 mm 4 mps 742 mmHg 75%
20:00 +19°C° 0.1 mm 2 mps 742 mmHg 79%
21:00 +19°C° 0.2 mm 2 mps 741 mmHg 81%
22:00 +19°C° 0.2 mm 2 mps 741 mmHg 83%
23:00 +19°C° 0.2 mm 2 mps 741 mmHg 85%

29 July, Thursday

Time Temperature Precipitation Wind Pressure Humidity
00:00 +18°C° 0.2 mm 2 mps 740 mmHg 87%
01:00 +18°C° 0.2 mm 3 mps 740 mmHg 88%
02:00 +18°C° 0.2 mm 3 mps 739 mmHg 90%
03:00 +18°C° 0.1 mm 3 mps 739 mmHg 90%
04:00 +18°C° 0.1 mm 3 mps 739 mmHg 90%
05:00 +18°C° 0.1 mm 3 mps 738 mmHg 90%
06:00 +19°C° 0 mm 3 mps 738 mmHg 86%
07:00 +20°C° 0 mm 3 mps 738 mmHg 82%
08:00 +21°C° 0 mm 3 mps 738 mmHg 77%
09:00 +24°C° 0 mm 3 mps 738 mmHg 71%
10:00 +26°C° 0 mm 3 mps 738 mmHg 64%
11:00 +28°C° 0 mm 3 mps 738 mmHg 57%
12:00 +28°C° 0.1 mm 4 mps 738 mmHg 56%
13:00 +28°C° 0.1 mm 5 mps 738 mmHg 56%
14:00 +28°C° 0.1 mm 5 mps 738 mmHg 55%
15:00 +28°C° 0 mm 5 mps 738 mmHg 53%
16:00 +28°C° 0 mm 4 mps 737 mmHg 52%
17:00 +28°C° 0 mm 4 mps 737 mmHg 50%
18:00 +27°C° 0 mm 3 mps 737 mmHg 54%
19:00 +25°C° 0 mm 2 mps 737 mmHg 59%
20:00 +24°C° 0 mm 1 mps 738 mmHg 63%
21:00 +23°C° 0 mm 2 mps 738 mmHg 66%
22:00 +21°C° 0 mm 2 mps 738 mmHg 69%
23:00 +20°C° 0 mm 2 mps 738 mmHg 72%
Show more